| time (UTC) | temp C | wind direction | speed KPH | gust KPH | rain 1hr cm | rain 24hr cm | rain mn cm | humidity % | barometer mb |
| 20260509043005 | 23 | 165 | 6.4 | 0.0 | 0.00 | 0.38 | 0.00 | 88 | 1010.6 |
| 20260509042505 | 23 | 137 | 6.4 | 0.0 | 0.18 | 0.38 | 0.00 | 87 | 1010.6 |
| 20260509042212 | 23 | 96 | 0.0 | 0.0 | 0.18 | 0.38 | 0.00 | 86 | 1010.3 |
| 20260509041505 | 24 | 59 | 14.5 | 0.0 | 0.00 | 0.36 | 0.00 | 83 | 1009.9 |
| 20260509041005 | 24 | 79 | 6.4 | 0.0 | 0.00 | 0.36 | 0.00 | 81 | 1009.9 |
| 20260509040504 | 25 | 79 | 6.4 | 0.0 | 0.00 | 0.36 | 0.00 | 80 | 1009.9 |
| 20260509040005 | 25 | 88 | 6.4 | 0.0 | 0.00 | 0.36 | 0.00 | 80 | 1009.9 |
| 20260509035505 | 25 | 144 | 0.0 | 0.0 | 0.00 | 0.36 | 0.00 | 79 | 1009.9 |
| 20260509035005 | 25 | 111 | 6.4 | 0.0 | 0.00 | 0.36 | 0.00 | 79 | 1009.9 |
| 20260509034505 | 25 | 86 | 14.5 | 0.0 | 0.00 | 0.36 | 0.00 | 79 | 1009.9 |
| 20260509034005 | 25 | 115 | 6.4 | 0.0 | 0.00 | 0.36 | 0.00 | 79 | 1009.9 |
| 20260509033505 | 25 | 156 | 6.4 | 0.0 | 0.00 | 0.36 | 0.00 | 79 | 1009.6 |
| 20260509033004 | 25 | 80 | 0.0 | 0.0 | 0.00 | 0.36 | 0.00 | 79 | 1009.3 |
| 20260509032505 | 25 | 104 | 14.5 | 0.0 | 0.00 | 0.36 | 0.00 | 78 | 1008.9 |
| 20260509032005 | 25 | 75 | 0.0 | 0.0 | 0.00 | 0.36 | 0.00 | 78 | 1009.3 |
| 20260509031505 | 25 | 56 | 14.5 | 0.0 | 0.00 | 0.36 | 0.00 | 79 | 1009.3 |
| 20260509031005 | 25 | 90 | 6.4 | 0.0 | 0.00 | 0.36 | 0.00 | 80 | 1008.9 |
| 20260509030505 | 25 | 87 | 6.4 | 0.0 | 0.00 | 0.36 | 0.00 | 79 | 1009.3 |
| 20260509030005 | 25 | 109 | 29.0 | 0.0 | 0.00 | 0.36 | 0.00 | 79 | 1008.9 |
| 20260509025505 | 25 | 75 | 14.5 | 0.0 | 0.00 | 0.36 | 0.00 | 80 | 1009.3 |
| 20260509025005 | 25 | 57 | 20.9 | 0.0 | 0.00 | 0.36 | 0.00 | 79 | 1008.9 |
| 20260509024505 | 25 | 46 | 20.9 | 0.0 | 0.00 | 0.36 | 0.00 | 79 | 1008.9 |
| 20260509024005 | 25 | 67 | 14.5 | 0.0 | 0.00 | 0.36 | 0.00 | 79 | 1008.9 |
| 20260509023505 | 25 | 92 | 14.5 | 0.0 | 0.00 | 0.36 | 0.00 | 79 | 1008.9 |
| 20260509023005 | 25 | 62 | 0.0 | 0.0 | 0.00 | 0.36 | 0.00 | 79 | 1008.9 |
| 20260509022505 | 25 | 74 | 6.4 | 0.0 | 0.00 | 0.36 | 0.00 | 79 | 1008.9 |
| 20260509022005 | 25 | 96 | 14.5 | 0.0 | 0.00 | 0.36 | 0.00 | 79 | 1008.9 |
| 20260509021505 | 25 | 79 | 0.0 | 0.0 | 0.00 | 0.36 | 0.00 | 79 | 1008.6 |
| 20260509021005 | 26 | 84 | 0.0 | 0.0 | 0.00 | 0.36 | 0.00 | 79 | 1008.6 |
| 20260509020712 | 26 | 63 | 29.0 | 0.0 | 0.00 | 0.36 | 0.00 | 78 | 1008.6 |
| 20260509020005 | 26 | 59 | 14.5 | 0.0 | 0.00 | 0.36 | 0.00 | 79 | 1008.6 |
| 20260509015712 | 26 | 72 | 6.4 | 0.0 | 0.00 | 0.36 | 0.00 | 79 | 1008.6 |
| 20260509015005 | 26 | 93 | 6.4 | 0.0 | 0.00 | 0.36 | 0.00 | 79 | 1008.2 |
| 20260509014505 | 26 | 59 | 14.5 | 0.0 | 0.00 | 0.36 | 0.00 | 79 | 1008.2 |
| 20260509014005 | 26 | 67 | 14.5 | 0.0 | 0.00 | 0.36 | 0.00 | 79 | 1007.9 |
| 20260509013505 | 26 | 81 | 20.9 | 0.0 | 0.00 | 0.36 | 0.00 | 79 | 1007.9 |
| 20260509013005 | 26 | 92 | 20.9 | 0.0 | 0.00 | 0.36 | 0.00 | 78 | 1007.9 |
| 20260509012505 | 26 | 34 | 6.4 | 0.0 | 0.00 | 0.36 | 0.00 | 78 | 1007.9 |
| 20260509012005 | 26 | 63 | 29.0 | 0.0 | 0.00 | 0.36 | 0.00 | 78 | 1007.6 |
| 20260509011505 | 26 | 78 | 6.4 | 0.0 | 0.00 | 0.36 | 0.00 | 78 | 1007.2 |
| 20260509011005 | 26 | 53 | 6.4 | 0.0 | 0.00 | 0.36 | 0.00 | 77 | 1007.2 |
| 20260509010505 | 26 | 9 | 6.4 | 0.0 | 0.00 | 0.36 | 0.00 | 77 | 1007.2 |
| 20260509010213 | 26 | 104 | 37.0 | 0.0 | 0.00 | 0.36 | 0.00 | 77 | 1006.9 |
| 20260509005505 | 26 | 47 | 6.4 | 0.0 | 0.00 | 0.36 | 0.00 | 77 | 1006.9 |
| 20260509005005 | 26 | 60 | 14.5 | 0.0 | 0.00 | 0.36 | 0.00 | 76 | 1007.2 |
| 20260509004505 | 26 | 56 | 0.0 | 0.0 | 0.00 | 0.36 | 0.00 | 76 | 1007.2 |
| 20260509004004 | 27 | 80 | 0.0 | 0.0 | 0.00 | 0.36 | 0.00 | 76 | 1007.2 |
| 20260509003505 | 27 | 30 | 0.0 | 0.0 | 0.00 | 0.36 | 0.00 | 76 | 1007.2 |
| 20260509003005 | 27 | 172 | 20.9 | 0.0 | 0.00 | 0.36 | 0.00 | 75 | 1007.2 |
| 20260509002712 | 27 | 131 | 14.5 | 0.0 | 0.00 | 0.36 | 0.00 | 75 | 1006.9 |
| 20260509002005 | 27 | 33 | 14.5 | 0.0 | 0.00 | 0.36 | 0.00 | 74 | 1006.9 |
| 20260509001712 | 27 | 89 | 14.5 | 0.0 | 0.00 | 0.36 | 0.00 | 74 | 1007.2 |
| 20260509001005 | 27 | 343 | 14.5 | 0.0 | 0.00 | 0.36 | 0.00 | 75 | 1007.2 |
| 20260509000712 | 27 | 93 | 14.5 | 0.0 | 0.00 | 0.36 | 0.00 | 75 | 1006.9 |
| 20260509000005 | 27 | 75 | 6.4 | 0.0 | 0.00 | 0.36 | 0.00 | 74 | 1007.2 |
| 20260508235505 | 27 | 96 | 37.0 | 0.0 | 0.00 | 0.36 | 0.00 | 74 | 1007.2 |
| 20260508235005 | 27 | 43 | 6.4 | 0.0 | 0.00 | 0.36 | 0.00 | 73 | 1007.2 |
| 20260508234505 | 27 | 60 | 14.5 | 0.0 | 0.00 | 0.36 | 0.00 | 73 | 1007.2 |
| 20260508234004 | 27 | 65 | 6.4 | 0.0 | 0.00 | 0.36 | 0.00 | 71 | 1007.2 |
| 20260508233712 | 28 | 106 | 20.9 | 0.0 | 0.00 | 0.36 | 0.00 | 70 | 1007.6 |
| 20260508233005 | 28 | 17 | 6.4 | 0.0 | 0.00 | 0.36 | 0.00 | 69 | 1007.2 |
| 20260508232505 | 28 | 79 | 0.0 | 0.0 | 0.00 | 0.36 | 0.00 | 69 | 1007.2 |
| 20260508232212 | 28 | 64 | 6.4 | 0.0 | 0.00 | 0.36 | 0.00 | 69 | 1007.2 |
| 20260508231505 | 27 | 342 | 6.4 | 0.0 | 0.00 | 0.36 | 0.00 | 71 | 1007.2 |
| 20260508231005 | 27 | 73 | 0.0 | 0.0 | 0.00 | 0.36 | 0.00 | 71 | 1007.6 |
| 20260508230713 | 27 | 53 | 6.4 | 0.0 | 0.00 | 0.36 | 0.00 | 71 | 1007.2 |
| 20260508230005 | 27 | 50 | 0.0 | 0.0 | 0.00 | 0.36 | 0.00 | 72 | 1007.6 |
| 20260508225711 | 27 | 79 | 0.0 | 0.0 | 0.00 | 0.36 | 0.00 | 72 | 1007.2 |
| 20260508225005 | 27 | 16 | 6.4 | 0.0 | 0.00 | 0.36 | 0.00 | 72 | 1007.2 |
| 20260508224505 | 27 | 65 | 6.4 | 0.0 | 0.00 | 0.36 | 0.00 | 71 | 1006.9 |
| 20260508224005 | 28 | 327 | 14.5 | 0.0 | 0.00 | 0.36 | 0.00 | 69 | 1007.2 |
| 20260508223505 | 28 | 57 | 0.0 | 0.0 | 0.00 | 0.36 | 0.00 | 70 | 1007.2 |
| 20260508223005 | 28 | 309 | 14.5 | 0.0 | 0.00 | 0.36 | 0.00 | 70 | 1007.2 |
| 20260508222505 | 27 | 73 | 0.0 | 0.0 | 0.00 | 0.36 | 0.00 | 70 | 1007.6 |
| 20260508222005 | 27 | 69 | 0.0 | 0.0 | 0.00 | 0.36 | 0.00 | 71 | 1007.9 |
| 20260508221505 | 27 | 57 | 0.0 | 0.0 | 0.00 | 0.36 | 0.00 | 71 | 1007.6 |
| 20260508221005 | 27 | 29 | 6.4 | 0.0 | 0.00 | 0.36 | 0.00 | 71 | 1007.6 |
| 20260508220505 | 27 | 81 | 6.4 | 0.0 | 0.00 | 0.36 | 0.00 | 71 | 1007.6 |
| 20260508220212 | 27 | 77 | 0.0 | 0.0 | 0.00 | 0.36 | 0.00 | 71 | 1007.9 |
| 20260508215505 | 27 | 47 | 0.0 | 0.0 | 0.00 | 0.36 | 0.00 | 71 | 1007.9 |
| 20260508215005 | 27 | 59 | 0.0 | 0.0 | 0.00 | 0.36 | 0.00 | 71 | 1007.9 |
| 20260508214505 | 27 | 58 | 6.4 | 0.0 | 0.00 | 0.36 | 0.00 | 70 | 1008.2 |
| 20260508214005 | 28 | 60 | 6.4 | 0.0 | 0.00 | 0.36 | 0.00 | 69 | 1008.2 |
| 20260508213505 | 28 | 63 | 0.0 | 0.0 | 0.00 | 0.36 | 0.00 | 70 | 1008.2 |
| 20260508213005 | 28 | 41 | 6.4 | 0.0 | 0.00 | 0.36 | 0.00 | 70 | 1008.6 |
| 20260508212505 | 28 | 97 | 0.0 | 0.0 | 0.00 | 0.36 | 0.00 | 69 | 1008.6 |
| 20260508212005 | 28 | 91 | 6.4 | 0.0 | 0.00 | 0.36 | 0.00 | 67 | 1008.9 |
| 20260508211505 | 27 | 1 | 6.4 | 0.0 | 0.00 | 0.36 | 0.00 | 70 | 1008.6 |
| 20260508211005 | 27 | 70 | 6.4 | 0.0 | 0.00 | 0.36 | 0.00 | 70 | 1008.9 |
| 20260508210504 | 28 | 97 | 6.4 | 0.0 | 0.00 | 0.36 | 0.00 | 68 | 1008.9 |
| 20260508210214 | 28 | 16 | 0.0 | 0.0 | 0.00 | 0.36 | 0.00 | 67 | 1008.9 |
| 20260508205505 | 29 | 93 | 6.4 | 0.0 | 0.00 | 0.36 | 0.00 | 63 | 1008.6 |
| 20260508205005 | 28 | 70 | 20.9 | 0.0 | 0.00 | 0.36 | 0.00 | 65 | 1008.9 |
| 20260508204505 | 28 | 84 | 0.0 | 0.0 | 0.00 | 0.36 | 0.00 | 68 | 1008.9 |
| 20260508204005 | 28 | 164 | 14.5 | 0.0 | 0.00 | 0.36 | 0.00 | 67 | 1009.3 |
| 20260508203505 | 28 | 81 | 6.4 | 0.0 | 0.00 | 0.36 | 0.00 | 68 | 1009.3 |
| 20260508203005 | 28 | 88 | 0.0 | 0.0 | 0.00 | 0.36 | 0.00 | 69 | 1009.3 |
| 20260508202505 | 28 | 146 | 14.5 | 0.0 | 0.00 | 0.36 | 0.00 | 70 | 1009.3 |
| 20260508202005 | 28 | 72 | 6.4 | 0.0 | 0.00 | 0.36 | 0.00 | 69 | 1009.3 |
| 20260508201505 | 28 | 80 | 6.4 | 0.0 | 0.00 | 0.36 | 0.00 | 68 | 1009.6 |
| 20260508201005 | 28 | 42 | 6.4 | 0.0 | 0.00 | 0.36 | 0.00 | 70 | 1009.6 |
| 20260508200505 | 28 | 77 | 0.0 | 0.0 | 0.00 | 0.36 | 0.00 | 67 | 1009.6 |
| 20260508200211 | 28 | 58 | 0.0 | 0.0 | 0.00 | 0.36 | 0.00 | 71 | 1009.6 |
| 20260508195505 | 28 | 140 | 20.9 | 0.0 | 0.00 | 0.36 | 0.00 | 69 | 1009.6 |
| 20260508195005 | 27 | 72 | 14.5 | 0.0 | 0.00 | 0.36 | 0.00 | 68 | 1009.9 |
| 20260508194712 | 27 | 7 | 6.4 | 0.0 | 0.00 | 0.36 | 0.00 | 74 | 1009.9 |
| 20260508194005 | 28 | 15 | 6.4 | 0.0 | 0.00 | 0.36 | 0.00 | 71 | 1009.9 |
| 20260508193505 | 28 | 9 | 0.0 | 0.0 | 0.00 | 0.36 | 0.00 | 72 | 1010.3 |
| 20260508193005 | 27 | 68 | 14.5 | 0.0 | 0.00 | 0.36 | 0.00 | 71 | 1010.3 |
| 20260508192505 | 27 | 249 | 14.5 | 0.0 | 0.00 | 0.36 | 0.00 | 72 | 1010.3 |
| 20260508192004 | 27 | 65 | 6.4 | 0.0 | 0.00 | 0.36 | 0.00 | 72 | 1010.3 |
| 20260508191505 | 27 | 42 | 0.0 | 0.0 | 0.00 | 0.36 | 0.00 | 74 | 1010.6 |
| 20260508191005 | 27 | 326 | 6.4 | 0.0 | 0.00 | 0.36 | 0.00 | 73 | 1010.6 |
| 20260508190505 | 27 | 58 | 14.5 | 0.0 | 0.00 | 0.36 | 0.00 | 73 | 1010.6 |
| 20260508190213 | 26 | 318 | 6.4 | 0.0 | 0.00 | 0.36 | 0.00 | 75 | 1010.6 |
| 20260508185504 | 26 | 13 | 14.5 | 0.0 | 0.00 | 0.36 | 0.00 | 76 | 1011.0 |
| 20260508185005 | 26 | 242 | 20.9 | 0.0 | 0.00 | 0.36 | 0.00 | 77 | 1011.0 |
| 20260508184505 | 26 | 337 | 6.4 | 0.0 | 0.00 | 0.36 | 0.00 | 78 | 1011.3 |
| 20260508184005 | 26 | 14 | 6.4 | 0.0 | 0.00 | 0.36 | 0.00 | 79 | 1011.0 |
| 20260508183505 | 25 | 314 | 14.5 | 0.0 | 0.00 | 0.36 | 0.00 | 79 | 1011.3 |
| 20260508183005 | 25 | 322 | 20.9 | 0.0 | 0.00 | 0.36 | 0.00 | 81 | 1011.3 |
| 20260508182505 | 25 | 39 | 6.4 | 0.0 | 0.00 | 0.36 | 0.00 | 81 | 1011.3 |
| 20260508182005 | 25 | 225 | 6.4 | 0.0 | 0.00 | 0.36 | 0.00 | 82 | 1011.6 |
| 20260508181505 | 25 | 340 | 20.9 | 0.0 | 0.00 | 0.36 | 0.00 | 82 | 1011.6 |
| 20260508181212 | 25 | 22 | 14.5 | 0.0 | 0.00 | 0.36 | 0.00 | 83 | 1011.3 |
| 20260508180505 | 23 | 345 | 6.4 | 0.0 | 0.00 | 0.36 | 0.00 | 86 | 1011.6 |
| 20260508180005 | 23 | 345 | 6.4 | 0.0 | 0.00 | 0.36 | 0.00 | 85 | 1011.3 |
| 20260508054005 | 21 | 149 | 6.4 | 0.0 | 0.00 | 0.05 | 0.00 | 95 | 1015.7 |
| 20260508053505 | 21 | 181 | 20.9 | 0.0 | 0.00 | 0.05 | 0.00 | 95 | 1015.7 |
| 20260508053004 | 21 | 176 | 14.5 | 0.0 | 0.13 | 0.05 | 0.00 | 95 | 1015.4 |
| 20260508052505 | 21 | 203 | 6.4 | 0.0 | 0.13 | 0.05 | 0.00 | 95 | 1014.4 |
| 20260508052005 | 21 | 106 | 0.0 | 0.0 | 0.00 | 0.03 | 0.00 | 95 | 1013.7 |
| 20260508051712 | 21 | 134 | 6.4 | 0.0 | 0.18 | 0.03 | 0.00 | 95 | 1013.3 |
| 20260508051008 | 21 | 76 | 0.0 | 0.0 | 0.18 | 0.03 | 0.00 | 95 | 1013.3 |
| 20260508050712 | 21 | 58 | 6.4 | 0.0 | 0.00 | 0.00 | 0.00 | 95 | 1013.7 |
| 20260508045712 | 21 | 46 | 6.4 | 0.0 | 0.00 | 0.00 | 0.00 | 95 | 1014.4 |
| 20260508045005 | 21 | 115 | 0.0 | 0.0 | 0.00 | 0.00 | 0.00 | 95 | 1014.0 |
| 20260508044504 | 21 | 76 | 0.0 | 0.0 | 0.00 | 0.00 | 0.00 | 95 | 1014.0 |
| 20260508044005 | 21 | 54 | 0.0 | 0.0 | 0.00 | 0.00 | 0.00 | 94 | 1013.7 |
| 20260508043505 | 21 | 144 | 6.4 | 0.0 | 0.00 | 0.00 | 0.00 | 94 | 1013.7 |